Tracking 30262 objects as of 17-Feb-2025
HD Live streaming from Space Station
objects crossing your sky now

BREEZE-M DEB (TANK)

Track BREEZE-M DEB (TANK) now!
10-day predictions


NORAD ID: 28188
Int'l Code: 2004-008B
Perigee: 301.0 km
Apogee: 13,470.7 km
Inclination: 49.5 °
Period: 253.2 minutes
Semi major axis: 13256 km
RCS: 7.345 m2 (large)
Launch date: March 15, 2004
Source: Commonwealth of Independent States (former USSR) (CIS)
Launch site: TYURATAM MISSILE AND SPACE COMPLEX (TTMTR)

Note: This is SATELLITE DEBRIS
Your satellite tracking list
Your tracking list is empty




NASA's NSSDC Master Catalog

Two Line Element Set (TLE):
1 28188U 04008B   25047.58666187  .00013709  00000-0  19107-2 0  9994
2 28188  49.4824 151.4701 4967099 192.1895 149.1331  5.68777624406833
Source of the keplerian elements: AFSPC